Year,Month,Day,Hour,Minute,Value (Times are PST for temperature in C)
2020,12,04,00,00,7.00
2020,12,04,00,01,7.00
2020,12,04,00,02,6.90
2020,12,04,00,03,6.90
2020,12,04,00,04,6.90
2020,12,04,00,05,6.90
2020,12,04,00,06,6.80
2020,12,04,00,07,6.80
2020,12,04,00,08,6.80
2020,12,04,00,09,6.80
2020,12,04,00,10,6.80
2020,12,04,00,11,6.80
2020,12,04,00,12,6.80
2020,12,04,00,13,6.70
2020,12,04,00,14,6.70
2020,12,04,00,15,6.70
2020,12,04,00,16,6.70
2020,12,04,00,17,6.70
2020,12,04,00,18,6.70
2020,12,04,00,19,6.70
2020,12,04,00,20,6.60
2020,12,04,00,21,6.60
2020,12,04,00,22,6.60
2020,12,04,00,23,6.60
2020,12,04,00,24,6.60
2020,12,04,00,25,6.60
2020,12,04,00,26,6.60
2020,12,04,00,27,6.60
2020,12,04,00,28,6.60
2020,12,04,00,29,6.60
2020,12,04,00,30,6.60
2020,12,04,00,31,6.60
2020,12,04,00,32,6.60
2020,12,04,00,33,6.60
2020,12,04,00,34,6.60
2020,12,04,00,35,6.60
2020,12,04,00,36,6.50
2020,12,04,00,37,6.40
2020,12,04,00,38,6.40
2020,12,04,00,39,6.40
2020,12,04,00,40,6.40
2020,12,04,00,41,6.40
2020,12,04,00,42,6.40
2020,12,04,00,43,6.30
2020,12,04,00,44,6.30
2020,12,04,00,45,6.30
2020,12,04,00,46,6.20
2020,12,04,00,47,6.20
2020,12,04,00,48,6.20
2020,12,04,00,49,6.20
2020,12,04,00,50,6.20
2020,12,04,00,51,6.20
2020,12,04,00,52,6.20
2020,12,04,00,53,6.20
2020,12,04,00,54,6.20
2020,12,04,00,55,6.10
2020,12,04,00,56,6.10
2020,12,04,00,57,6.10
2020,12,04,00,58,6.10
2020,12,04,00,59,6.10
2020,12,04,01,00,6.10
2020,12,04,01,01,6.10
2020,12,04,01,02,6.10
2020,12,04,01,03,6.10
2020,12,04,01,04,6.00
2020,12,04,01,05,6.00
2020,12,04,01,06,6.00
2020,12,04,01,07,6.00
2020,12,04,01,08,6.00
2020,12,04,01,09,6.00
2020,12,04,01,10,6.00
2020,12,04,01,11,6.00
2020,12,04,01,12,6.00
2020,12,04,01,13,6.00
2020,12,04,01,14,6.00
2020,12,04,01,15,6.00
2020,12,04,01,16,6.00
2020,12,04,01,17,5.90
2020,12,04,01,18,5.90
2020,12,04,01,19,5.90
2020,12,04,01,20,5.90
2020,12,04,01,21,5.90
2020,12,04,01,22,5.90
2020,12,04,01,23,5.80
2020,12,04,01,24,5.80
2020,12,04,01,25,5.80
2020,12,04,01,26,5.80
2020,12,04,01,27,5.80
2020,12,04,01,28,5.80
2020,12,04,01,29,5.70
2020,12,04,01,30,5.70
2020,12,04,01,31,5.70
2020,12,04,01,32,5.70
2020,12,04,01,33,5.70
2020,12,04,01,34,5.70
2020,12,04,01,35,5.70
2020,12,04,01,36,5.70
2020,12,04,01,37,5.70
2020,12,04,01,38,5.70
2020,12,04,01,39,5.70
2020,12,04,01,40,5.60
2020,12,04,01,41,5.60
2020,12,04,01,42,5.50
2020,12,04,01,43,5.50
2020,12,04,01,44,5.40
2020,12,04,01,45,5.40
2020,12,04,01,46,5.40
2020,12,04,01,47,5.30
2020,12,04,01,48,5.30
2020,12,04,01,49,5.30
2020,12,04,01,50,5.30
2020,12,04,01,51,5.30
2020,12,04,01,52,5.30
2020,12,04,01,53,5.30
2020,12,04,01,54,5.30
2020,12,04,01,55,5.30
2020,12,04,01,56,5.30
2020,12,04,01,57,5.30
2020,12,04,01,58,5.30
2020,12,04,01,59,5.30
2020,12,04,02,00,5.30
2020,12,04,02,01,5.30
2020,12,04,02,02,5.30
2020,12,04,02,03,5.30
2020,12,04,02,04,5.30
2020,12,04,02,05,5.40
2020,12,04,02,06,5.40
2020,12,04,02,07,5.40
2020,12,04,02,08,5.40
2020,12,04,02,09,5.50
2020,12,04,02,10,5.50
2020,12,04,02,11,5.50
2020,12,04,02,12,5.50
2020,12,04,02,13,5.50
2020,12,04,02,14,5.50
2020,12,04,02,15,5.50
2020,12,04,02,16,5.50
2020,12,04,02,17,5.50
2020,12,04,02,18,5.50
2020,12,04,02,19,5.50
2020,12,04,02,20,5.50
2020,12,04,02,21,5.50
2020,12,04,02,22,5.40
2020,12,04,02,23,5.40
2020,12,04,02,24,5.40
2020,12,04,02,25,5.30
2020,12,04,02,26,5.30
2020,12,04,02,27,5.30
2020,12,04,02,28,5.30
2020,12,04,02,29,5.30
2020,12,04,02,30,5.30
2020,12,04,02,31,5.30
2020,12,04,02,32,5.30
2020,12,04,02,33,5.30
2020,12,04,02,34,5.30
2020,12,04,02,35,5.30
2020,12,04,02,36,5.20
2020,12,04,02,37,5.20
2020,12,04,02,38,5.20
2020,12,04,02,39,5.20
2020,12,04,02,40,5.10
2020,12,04,02,41,5.10
2020,12,04,02,42,5.10
2020,12,04,02,43,5.20
2020,12,04,02,44,5.20
2020,12,04,02,45,5.20
2020,12,04,02,46,5.20
2020,12,04,02,47,5.20
2020,12,04,02,48,5.20
2020,12,04,02,49,5.20
2020,12,04,02,50,5.30
2020,12,04,02,51,5.30
2020,12,04,02,52,5.30
2020,12,04,02,53,5.20
2020,12,04,02,54,5.20
2020,12,04,02,55,5.20
2020,12,04,02,56,5.20
2020,12,04,02,57,5.30
2020,12,04,02,58,5.30
2020,12,04,02,59,5.30
2020,12,04,03,00,5.30
2020,12,04,03,01,5.30
2020,12,04,03,02,5.40
2020,12,04,03,03,5.40
2020,12,04,03,04,5.40
2020,12,04,03,05,5.40
2020,12,04,03,06,5.40
2020,12,04,03,07,5.40
2020,12,04,03,08,5.40
2020,12,04,03,09,5.30
2020,12,04,03,10,5.30
2020,12,04,03,11,5.30
2020,12,04,03,12,5.30
2020,12,04,03,13,5.30
2020,12,04,03,14,5.30
2020,12,04,03,15,5.30
2020,12,04,03,16,5.30
2020,12,04,03,17,5.30
2020,12,04,03,18,5.20
2020,12,04,03,19,5.10
2020,12,04,03,20,5.10
2020,12,04,03,21,5.10
2020,12,04,03,22,4.90
2020,12,04,03,23,4.90
2020,12,04,03,24,4.90
2020,12,04,03,25,4.90
2020,12,04,03,26,4.90
2020,12,04,03,27,4.90
2020,12,04,03,28,4.90
2020,12,04,03,29,4.90
2020,12,04,03,30,5.00
2020,12,04,03,31,5.10
2020,12,04,03,32,5.10
2020,12,04,03,33,5.00
2020,12,04,03,34,4.90
2020,12,04,03,35,4.90
2020,12,04,03,36,4.90
2020,12,04,03,37,4.90
2020,12,04,03,38,4.90
2020,12,04,03,39,4.90
2020,12,04,03,40,4.90
2020,12,04,03,41,4.90
2020,12,04,03,42,4.90
2020,12,04,03,43,4.90
2020,12,04,03,44,4.90
2020,12,04,03,45,4.90
2020,12,04,03,46,4.90
2020,12,04,03,47,4.90
2020,12,04,03,48,4.90
2020,12,04,03,49,4.90
2020,12,04,03,50,4.90
2020,12,04,03,51,4.90
2020,12,04,03,52,4.90
2020,12,04,03,53,4.90
2020,12,04,03,54,4.90
2020,12,04,03,55,4.90
2020,12,04,03,56,4.90
2020,12,04,03,57,4.90
2020,12,04,03,58,4.90
2020,12,04,03,59,4.90
2020,12,04,04,00,4.90
2020,12,04,04,01,4.90
2020,12,04,04,02,4.90
2020,12,04,04,03,4.80
2020,12,04,04,04,4.80
2020,12,04,04,05,4.80
2020,12,04,04,06,4.80
2020,12,04,04,07,4.70
2020,12,04,04,08,4.70
2020,12,04,04,09,4.60
2020,12,04,04,10,4.60
2020,12,04,04,11,4.60
2020,12,04,04,12,4.50
2020,12,04,04,13,4.50
2020,12,04,04,14,4.50
2020,12,04,04,15,4.40
2020,12,04,04,16,4.40
2020,12,04,04,17,4.30
2020,12,04,04,18,4.20
2020,12,04,04,19,4.20
2020,12,04,04,20,4.20
2020,12,04,04,21,4.20
2020,12,04,04,22,4.20
2020,12,04,04,23,4.20
2020,12,04,04,24,4.20
2020,12,04,04,25,4.20
2020,12,04,04,26,4.20
2020,12,04,04,27,4.20
2020,12,04,04,28,4.30
2020,12,04,04,29,4.30
2020,12,04,04,30,4.30
2020,12,04,04,31,4.40
2020,12,04,04,32,4.40
2020,12,04,04,33,4.50
2020,12,04,04,34,4.50
2020,12,04,04,35,4.40
2020,12,04,04,36,4.40
2020,12,04,04,37,4.30
2020,12,04,04,38,4.30
2020,12,04,04,39,4.40
2020,12,04,04,40,4.40
2020,12,04,04,41,4.40
2020,12,04,04,42,4.40
2020,12,04,04,43,4.40
2020,12,04,04,44,4.40
2020,12,04,04,45,4.40
2020,12,04,04,46,4.50
2020,12,04,04,47,4.50
2020,12,04,04,48,4.60
2020,12,04,04,49,4.60
2020,12,04,04,50,4.70
2020,12,04,04,51,4.70
2020,12,04,04,52,4.80
2020,12,04,04,53,4.80
2020,12,04,04,54,4.90
2020,12,04,04,55,4.90
2020,12,04,04,56,4.90
2020,12,04,04,57,4.90
2020,12,04,04,58,4.90
2020,12,04,04,59,4.90
2020,12,04,05,00,4.90
2020,12,04,05,01,4.90
2020,12,04,05,02,4.90
2020,12,04,05,03,4.90
2020,12,04,05,04,4.90
2020,12,04,05,05,4.90
2020,12,04,05,06,4.90
2020,12,04,05,07,4.90
2020,12,04,05,08,4.90
2020,12,04,05,09,4.80
2020,12,04,05,10,4.80
2020,12,04,05,11,4.80
2020,12,04,05,12,4.70
2020,12,04,05,13,4.70
2020,12,04,05,14,4.70
2020,12,04,05,15,4.60
2020,12,04,05,16,4.60
2020,12,04,05,17,4.60
2020,12,04,05,18,4.60
2020,12,04,05,19,4.60
2020,12,04,05,20,4.60
2020,12,04,05,21,4.60
2020,12,04,05,22,4.60
2020,12,04,05,23,4.60
2020,12,04,05,24,4.60
2020,12,04,05,25,4.50
2020,12,04,05,26,4.50
2020,12,04,05,27,4.50
2020,12,04,05,28,4.40
2020,12,04,05,29,4.30
2020,12,04,05,30,4.30
2020,12,04,05,31,4.20
2020,12,04,05,32,4.20
2020,12,04,05,33,4.10
2020,12,04,05,34,4.10
2020,12,04,05,35,4.10
2020,12,04,05,36,4.10
2020,12,04,05,37,4.10
2020,12,04,05,38,4.10
2020,12,04,05,39,4.10
2020,12,04,05,40,4.10
2020,12,04,05,41,4.20
2020,12,04,05,42,4.20
2020,12,04,05,43,4.20
2020,12,04,05,44,4.20
2020,12,04,05,45,4.20
2020,12,04,05,46,4.20
2020,12,04,05,47,4.20
2020,12,04,05,48,4.20
2020,12,04,05,49,4.20
2020,12,04,05,50,4.20
2020,12,04,05,51,4.20
2020,12,04,05,52,4.20
2020,12,04,05,53,4.20
2020,12,04,05,54,4.20
2020,12,04,05,55,4.20
2020,12,04,05,56,4.20
2020,12,04,05,57,4.20
2020,12,04,05,58,4.20
2020,12,04,05,59,4.20
2020,12,04,06,00,4.20
2020,12,04,06,01,4.20
2020,12,04,06,02,4.20
2020,12,04,06,03,4.20
2020,12,04,06,04,4.20
2020,12,04,06,05,4.20
2020,12,04,06,06,4.20
2020,12,04,06,07,4.20
2020,12,04,06,08,4.20
2020,12,04,06,09,4.20
2020,12,04,06,10,4.20
2020,12,04,06,11,4.20
2020,12,04,06,12,4.20
2020,12,04,06,13,4.20
2020,12,04,06,14,4.20
2020,12,04,06,15,4.10
2020,12,04,06,16,4.10
2020,12,04,06,17,4.10
2020,12,04,06,18,4.10
2020,12,04,06,19,4.00
2020,12,04,06,20,4.00
2020,12,04,06,21,4.00
2020,12,04,06,22,3.90
2020,12,04,06,23,3.80
2020,12,04,06,24,3.80
2020,12,04,06,25,3.80
2020,12,04,06,26,3.80
2020,12,04,06,27,3.80
2020,12,04,06,28,3.80
2020,12,04,06,29,3.80
2020,12,04,06,30,3.80
2020,12,04,06,31,3.80
2020,12,04,06,32,3.80
2020,12,04,06,33,3.70
2020,12,04,06,34,3.70
2020,12,04,06,35,3.70
2020,12,04,06,36,3.70
2020,12,04,06,37,3.70
2020,12,04,06,38,3.70
2020,12,04,06,39,3.70
2020,12,04,06,40,3.70
2020,12,04,06,41,3.70
2020,12,04,06,42,3.70
2020,12,04,06,43,3.70
2020,12,04,06,44,3.70
2020,12,04,06,45,3.70
2020,12,04,06,46,3.70
2020,12,04,06,47,3.70
2020,12,04,06,48,3.70
2020,12,04,06,49,3.70
2020,12,04,06,50,3.70
2020,12,04,06,51,3.70
2020,12,04,06,52,3.70
2020,12,04,06,53,3.70
2020,12,04,06,54,3.70
2020,12,04,06,55,3.60
2020,12,04,06,56,3.60
2020,12,04,06,57,3.60
2020,12,04,06,58,3.60
2020,12,04,06,59,3.50
2020,12,04,07,00,3.50
2020,12,04,07,01,3.50
2020,12,04,07,02,3.50
2020,12,04,07,03,3.50
2020,12,04,07,04,3.60
2020,12,04,07,05,3.60
2020,12,04,07,06,3.70
2020,12,04,07,07,3.80
2020,12,04,07,08,3.80
2020,12,04,07,09,3.80
2020,12,04,07,10,3.80
2020,12,04,07,11,3.80
2020,12,04,07,12,3.80
2020,12,04,07,13,3.80
2020,12,04,07,14,3.80
2020,12,04,07,15,3.80
2020,12,04,07,16,3.80
2020,12,04,07,17,3.80
2020,12,04,07,18,3.80
2020,12,04,07,19,3.90
2020,12,04,07,20,3.90
2020,12,04,07,21,4.00
2020,12,04,07,22,4.00
2020,12,04,07,23,4.00
2020,12,04,07,24,4.10
2020,12,04,07,25,4.10
2020,12,04,07,26,4.20
2020,12,04,07,27,4.20
2020,12,04,07,28,4.20
2020,12,04,07,29,4.20
2020,12,04,07,30,4.20
2020,12,04,07,31,4.20
2020,12,04,07,32,4.20
2020,12,04,07,33,4.20
2020,12,04,07,34,4.20
2020,12,04,07,35,4.20
2020,12,04,07,36,4.20
2020,12,04,07,37,4.20
2020,12,04,07,38,4.20
2020,12,04,07,39,4.20
2020,12,04,07,40,4.20
2020,12,04,07,41,4.20
2020,12,04,07,42,4.20
2020,12,04,07,43,4.10
2020,12,04,07,44,4.10
2020,12,04,07,45,4.00
2020,12,04,07,46,4.00
2020,12,04,07,47,4.00
2020,12,04,07,48,3.90
2020,12,04,07,49,3.80
2020,12,04,07,50,3.80
2020,12,04,07,51,3.80
2020,12,04,07,52,3.80
2020,12,04,07,53,3.80
2020,12,04,07,54,3.80
2020,12,04,07,55,3.80
2020,12,04,07,56,3.80
2020,12,04,07,57,3.80
2020,12,04,07,58,3.80
2020,12,04,07,59,3.80
2020,12,04,08,00,3.80
2020,12,04,08,01,3.80
2020,12,04,08,02,3.90
2020,12,04,08,03,4.00
2020,12,04,08,04,4.00
2020,12,04,08,05,4.00
2020,12,04,08,06,4.00
2020,12,04,08,07,4.10
2020,12,04,08,08,4.10
2020,12,04,08,09,4.20
2020,12,04,08,10,4.20
2020,12,04,08,11,4.30
2020,12,04,08,12,4.30
2020,12,04,08,13,4.30
2020,12,04,08,14,4.20
2020,12,04,08,15,4.20
2020,12,04,08,16,4.20
2020,12,04,08,17,4.10
2020,12,04,08,18,4.10
2020,12,04,08,19,4.10
2020,12,04,08,20,4.10
2020,12,04,08,21,4.10
2020,12,04,08,22,4.20
2020,12,04,08,23,4.20
2020,12,04,08,24,4.30
2020,12,04,08,25,4.30
2020,12,04,08,26,4.40
2020,12,04,08,27,4.40
2020,12,04,08,28,4.40
2020,12,04,08,29,4.50
2020,12,04,08,30,4.50
2020,12,04,08,31,4.50
2020,12,04,08,32,4.50
2020,12,04,08,33,4.50
2020,12,04,08,34,4.50
2020,12,04,08,35,4.50
2020,12,04,08,36,4.50
2020,12,04,08,37,4.50
2020,12,04,08,38,4.50
2020,12,04,08,39,4.50
2020,12,04,08,40,4.50
2020,12,04,08,41,4.50
2020,12,04,08,42,4.50
2020,12,04,08,43,4.50
2020,12,04,08,44,4.60
2020,12,04,08,45,4.60
2020,12,04,08,46,4.60
2020,12,04,08,47,4.60
2020,12,04,08,48,4.60
2020,12,04,08,49,4.60
2020,12,04,08,50,4.60
2020,12,04,08,51,4.60
2020,12,04,08,52,4.70
2020,12,04,08,53,4.70
2020,12,04,08,54,4.80
2020,12,04,08,55,4.80
2020,12,04,08,56,4.80
2020,12,04,08,57,4.90
2020,12,04,08,58,4.90
2020,12,04,08,59,4.90
2020,12,04,09,00,5.00
2020,12,04,09,01,5.10
2020,12,04,09,02,5.10
2020,12,04,09,03,5.10
2020,12,04,09,04,5.10
2020,12,04,09,05,5.10
2020,12,04,09,06,5.20
2020,12,04,09,07,5.30
2020,12,04,09,08,5.30
2020,12,04,09,09,5.30
2020,12,04,09,10,5.40
2020,12,04,09,11,5.40
2020,12,04,09,12,5.40
2020,12,04,09,13,5.50
2020,12,04,09,14,5.50
2020,12,04,09,15,5.60
2020,12,04,09,16,5.60
2020,12,04,09,17,5.70
2020,12,04,09,18,5.70
2020,12,04,09,19,5.80
2020,12,04,09,20,5.90
2020,12,04,09,21,6.00
2020,12,04,09,22,6.10
2020,12,04,09,23,6.20
2020,12,04,09,24,6.30
2020,12,04,09,25,6.30
2020,12,04,09,26,6.40
2020,12,04,09,27,6.40
2020,12,04,09,28,6.40
2020,12,04,09,29,6.40
2020,12,04,09,30,6.40
2020,12,04,09,31,6.50
2020,12,04,09,32,6.60
2020,12,04,09,33,6.60
2020,12,04,09,34,6.60
2020,12,04,09,35,6.60
2020,12,04,09,36,6.60
2020,12,04,09,37,6.60
2020,12,04,09,38,6.50
2020,12,04,09,39,6.40
2020,12,04,09,40,6.40
2020,12,04,09,41,6.40
2020,12,04,09,42,6.40
2020,12,04,09,43,6.40
2020,12,04,09,44,6.40
2020,12,04,09,45,6.40
2020,12,04,09,46,6.40
2020,12,04,09,47,6.40
2020,12,04,09,48,6.40
2020,12,04,09,49,6.50
2020,12,04,09,50,6.60
2020,12,04,09,51,6.60
2020,12,04,09,52,6.70
2020,12,04,09,53,6.80
2020,12,04,09,54,6.90
2020,12,04,09,55,7.00
2020,12,04,09,56,7.20
2020,12,04,09,57,7.30
2020,12,04,09,58,7.50
2020,12,04,09,59,7.60
2020,12,04,10,00,7.70
2020,12,04,10,01,7.80
2020,12,04,10,02,7.80
2020,12,04,10,03,7.80
2020,12,04,10,04,7.80
2020,12,04,10,05,7.80
2020,12,04,10,06,7.80
2020,12,04,10,07,7.80
2020,12,04,10,08,7.80
2020,12,04,10,09,7.90
2020,12,04,10,10,7.90
2020,12,04,10,11,7.90
2020,12,04,10,12,7.90
2020,12,04,10,13,8.00
2020,12,04,10,14,8.00
2020,12,04,10,15,8.10
2020,12,04,10,16,8.20
2020,12,04,10,17,8.20
2020,12,04,10,18,8.30
2020,12,04,10,19,8.30
2020,12,04,10,20,8.40
2020,12,04,10,21,8.50
2020,12,04,10,22,8.50
2020,12,04,10,23,8.50
2020,12,04,10,24,8.50
2020,12,04,10,25,8.50
2020,12,04,10,26,8.60
2020,12,04,10,27,8.60
2020,12,04,10,28,8.70
2020,12,04,10,29,8.70
2020,12,04,10,30,8.80
2020,12,04,10,31,8.80
2020,12,04,10,32,8.80
2020,12,04,10,33,8.90
2020,12,04,10,34,8.90
2020,12,04,10,35,8.90
2020,12,04,10,36,8.90
2020,12,04,10,37,8.90
2020,12,04,10,38,9.00
2020,12,04,10,39,9.10
2020,12,04,10,40,9.10
2020,12,04,10,41,9.20
2020,12,04,10,42,9.20
2020,12,04,10,43,9.20
2020,12,04,10,44,9.20
2020,12,04,10,45,9.20
2020,12,04,10,46,9.20
2020,12,04,10,47,9.20
2020,12,04,10,48,9.20
2020,12,04,10,49,9.20
2020,12,04,10,50,9.30
2020,12,04,10,51,9.30
2020,12,04,10,52,9.40
2020,12,04,10,53,9.40
2020,12,04,10,54,9.40
2020,12,04,10,55,9.50
2020,12,04,10,56,9.60
2020,12,04,10,57,9.70
2020,12,04,10,58,9.90
2020,12,04,10,59,10.00
2020,12,04,11,00,10.10
2020,12,04,11,01,10.20
2020,12,04,11,02,10.30
2020,12,04,11,03,10.30
2020,12,04,11,04,10.40
2020,12,04,11,05,10.40
2020,12,04,11,06,10.30
2020,12,04,11,07,10.30
2020,12,04,11,08,10.30
2020,12,04,11,09,10.30
2020,12,04,11,10,10.40
2020,12,04,11,11,10.40
2020,12,04,11,12,10.40
2020,12,04,11,13,10.40
2020,12,04,11,14,10.40
2020,12,04,11,15,10.40
2020,12,04,11,16,10.50
2020,12,04,11,17,10.60
2020,12,04,11,18,10.60
2020,12,04,11,19,10.60
2020,12,04,11,20,10.70
2020,12,04,11,21,10.70
2020,12,04,11,22,10.70
2020,12,04,11,23,10.80
2020,12,04,11,24,10.80
2020,12,04,11,25,10.80
2020,12,04,11,26,10.80
2020,12,04,11,27,10.80
2020,12,04,11,28,10.80
2020,12,04,11,29,10.70
2020,12,04,11,30,10.70
2020,12,04,11,31,10.70
2020,12,04,11,32,10.80
2020,12,04,11,33,10.80
2020,12,04,11,34,10.80
2020,12,04,11,35,10.80
2020,12,04,11,36,10.90
2020,12,04,11,37,10.90
2020,12,04,11,38,10.90
2020,12,04,11,39,11.10
2020,12,04,11,40,11.10
2020,12,04,11,41,11.10
2020,12,04,11,42,11.10
2020,12,04,11,43,11.10
2020,12,04,11,44,11.10
2020,12,04,11,45,11.10
2020,12,04,11,46,11.20
2020,12,04,11,47,11.20
2020,12,04,11,48,11.20
2020,12,04,11,49,11.20
2020,12,04,11,50,11.20
2020,12,04,11,51,11.20
2020,12,04,11,52,11.20
2020,12,04,11,53,11.20
2020,12,04,11,54,11.30
2020,12,04,11,55,11.30
2020,12,04,11,56,11.40
2020,12,04,11,57,11.40
2020,12,04,11,58,11.50
2020,12,04,11,59,11.60
2020,12,04,12,00,11.60
2020,12,04,12,01,11.60
2020,12,04,12,02,11.60
2020,12,04,12,03,11.60
2020,12,04,12,04,11.60
2020,12,04,12,05,11.60
2020,12,04,12,06,11.50
2020,12,04,12,07,11.40
2020,12,04,12,08,11.50
2020,12,04,12,09,11.60
2020,12,04,12,10,11.60
2020,12,04,12,11,11.70
2020,12,04,12,12,11.60
2020,12,04,12,13,11.50
2020,12,04,12,14,11.40
2020,12,04,12,15,11.40
2020,12,04,12,16,11.40
2020,12,04,12,17,11.50
2020,12,04,12,18,11.60
2020,12,04,12,19,11.60
2020,12,04,12,20,11.50
2020,12,04,12,21,11.50
2020,12,04,12,22,11.60
2020,12,04,12,23,11.60
2020,12,04,12,24,11.60
2020,12,04,12,25,11.60
2020,12,04,12,26,11.60
2020,12,04,12,27,11.60
2020,12,04,12,28,11.60
2020,12,04,12,29,11.60
2020,12,04,12,30,11.60
2020,12,04,12,31,11.60
2020,12,04,12,32,11.60
2020,12,04,12,33,11.60
2020,12,04,12,34,11.60
2020,12,04,12,35,11.70
2020,12,04,12,36,11.80
2020,12,04,12,37,11.80
2020,12,04,12,38,11.80
2020,12,04,12,39,11.80
2020,12,04,12,40,11.90
2020,12,04,12,41,11.90
2020,12,04,12,42,11.90
2020,12,04,12,43,11.90
2020,12,04,12,44,12.00
2020,12,04,12,45,12.00
2020,12,04,12,46,12.10
2020,12,04,12,47,12.20
2020,12,04,12,48,12.30
2020,12,04,12,49,12.30
2020,12,04,12,50,12.30
2020,12,04,12,51,12.30
2020,12,04,12,52,12.30
2020,12,04,12,53,12.30
2020,12,04,12,54,12.30
2020,12,04,12,55,12.30
2020,12,04,12,56,12.30
2020,12,04,12,57,12.30
2020,12,04,12,58,12.30
2020,12,04,12,59,12.30
2020,12,04,13,00,12.30
2020,12,04,13,01,12.40
2020,12,04,13,02,12.50
2020,12,04,13,03,12.60
2020,12,04,13,04,12.60
2020,12,04,13,05,12.70
2020,12,04,13,06,12.70
2020,12,04,13,07,12.70
2020,12,04,13,08,12.70
2020,12,04,13,09,12.60
2020,12,04,13,10,12.60
2020,12,04,13,11,12.60
2020,12,04,13,12,12.50
2020,12,04,13,13,12.50
2020,12,04,13,14,12.50
2020,12,04,13,15,12.40
2020,12,04,13,16,12.30
2020,12,04,13,17,12.30
2020,12,04,13,18,12.30
2020,12,04,13,19,12.20
2020,12,04,13,20,12.20
2020,12,04,13,21,12.10
2020,12,04,13,22,12.10
2020,12,04,13,23,12.00
2020,12,04,13,24,12.00
2020,12,04,13,25,12.00
2020,12,04,13,26,12.00
2020,12,04,13,27,12.00
2020,12,04,13,28,12.00
2020,12,04,13,29,12.00
2020,12,04,13,30,12.10
2020,12,04,13,31,12.20
2020,12,04,13,32,12.20
2020,12,04,13,33,12.20
2020,12,04,13,34,12.20
2020,12,04,13,35,12.10
2020,12,04,13,36,12.00
2020,12,04,13,37,12.00
2020,12,04,13,38,12.00
2020,12,04,13,39,12.00
2020,12,04,13,40,12.00
2020,12,04,13,41,12.10
2020,12,04,13,42,12.20
2020,12,04,13,43,12.20
2020,12,04,13,44,12.20
2020,12,04,13,45,12.20
2020,12,04,13,46,12.10
2020,12,04,13,47,12.10
2020,12,04,13,48,12.00
2020,12,04,13,49,12.00
2020,12,04,13,50,12.00
2020,12,04,13,51,12.00
2020,12,04,13,52,11.90
2020,12,04,13,53,11.90
2020,12,04,13,54,11.80
2020,12,04,13,55,11.70
2020,12,04,13,56,11.70
2020,12,04,13,57,11.70
2020,12,04,13,58,11.80
2020,12,04,13,59,11.80
2020,12,04,14,00,11.80
2020,12,04,14,01,11.80
2020,12,04,14,02,11.80
2020,12,04,14,03,11.90
2020,12,04,14,04,11.80
2020,12,04,14,05,11.80
2020,12,04,14,06,11.80
2020,12,04,14,07,11.80
2020,12,04,14,08,11.80
2020,12,04,14,09,11.80
2020,12,04,14,10,11.80
2020,12,04,14,11,11.80
2020,12,04,14,12,11.80
2020,12,04,14,13,11.80
2020,12,04,14,14,11.80
2020,12,04,14,15,11.80
2020,12,04,14,16,11.80
2020,12,04,14,17,11.80
2020,12,04,14,18,11.80
2020,12,04,14,19,11.80
2020,12,04,14,20,11.70
2020,12,04,14,21,11.70
2020,12,04,14,22,11.60
2020,12,04,14,23,11.60
2020,12,04,14,24,11.50
2020,12,04,14,25,11.40
2020,12,04,14,26,11.40
2020,12,04,14,27,11.40
2020,12,04,14,28,11.40
2020,12,04,14,29,11.40
2020,12,04,14,30,11.40
2020,12,04,14,31,11.30
2020,12,04,14,32,11.30
2020,12,04,14,33,11.30
2020,12,04,14,34,11.30
2020,12,04,14,35,11.30
2020,12,04,14,36,11.40
2020,12,04,14,37,11.40
2020,12,04,14,38,11.40
2020,12,04,14,39,11.40
2020,12,04,14,40,11.40
2020,12,04,14,41,11.30
2020,12,04,14,42,11.20
2020,12,04,14,43,11.10
2020,12,04,14,44,11.10
2020,12,04,14,45,11.10
2020,12,04,14,46,11.10
2020,12,04,14,47,11.10
2020,12,04,14,48,11.00
2020,12,04,14,49,10.90
2020,12,04,14,50,10.90
2020,12,04,14,51,10.90
2020,12,04,14,52,10.90
2020,12,04,14,53,10.90
2020,12,04,14,54,10.80
2020,12,04,14,55,10.80
2020,12,04,14,56,10.70
2020,12,04,14,57,10.70
2020,12,04,14,58,10.70
2020,12,04,14,59,10.60
2020,12,04,15,00,10.60
2020,12,04,15,01,10.60
2020,12,04,15,02,10.60
2020,12,04,15,03,10.60
2020,12,04,15,04,10.60
2020,12,04,15,05,10.60
2020,12,04,15,06,10.60
2020,12,04,15,07,10.50
2020,12,04,15,08,10.40
2020,12,04,15,09,10.40
2020,12,04,15,10,10.40
2020,12,04,15,11,10.40
2020,12,04,15,12,10.40
2020,12,04,15,13,10.40
2020,12,04,15,14,10.40
2020,12,04,15,15,10.40
2020,12,04,15,16,10.40
2020,12,04,15,17,10.40
2020,12,04,15,18,10.40
2020,12,04,15,19,10.40
2020,12,04,15,20,10.40
2020,12,04,15,21,10.30
2020,12,04,15,22,10.30
2020,12,04,15,23,10.30
2020,12,04,15,24,10.20
2020,12,04,15,25,10.20
2020,12,04,15,26,10.20
2020,12,04,15,27,10.20
2020,12,04,15,28,10.10
2020,12,04,15,29,10.10
2020,12,04,15,30,10.10
2020,12,04,15,31,10.10
2020,12,04,15,32,10.10
2020,12,04,15,33,10.00
2020,12,04,15,34,9.90
2020,12,04,15,35,9.90
2020,12,04,15,36,9.90
2020,12,04,15,37,9.90
2020,12,04,15,38,9.90
2020,12,04,15,39,9.90
2020,12,04,15,40,9.90
2020,12,04,15,41,9.80
2020,12,04,15,42,9.80
2020,12,04,15,43,9.80
2020,12,04,15,44,9.80
2020,12,04,15,45,9.80
2020,12,04,15,46,9.70
2020,12,04,15,47,9.70
2020,12,04,15,48,9.70
2020,12,04,15,49,9.70
2020,12,04,15,50,9.70
2020,12,04,15,51,9.70
2020,12,04,15,52,9.70
2020,12,04,15,53,9.60
2020,12,04,15,54,9.60
2020,12,04,15,55,9.60
2020,12,04,15,56,9.50
2020,12,04,15,57,9.50
2020,12,04,15,58,9.50
2020,12,04,15,59,9.40
2020,12,04,16,00,9.40
2020,12,04,16,01,9.40
2020,12,04,16,02,9.30
2020,12,04,16,03,9.30
2020,12,04,16,04,9.30
2020,12,04,16,05,9.20
2020,12,04,16,06,9.20
2020,12,04,16,07,9.20
2020,12,04,16,08,9.20
2020,12,04,16,09,9.20
2020,12,04,16,10,9.20
2020,12,04,16,11,9.20
2020,12,04,16,12,9.10
2020,12,04,16,13,9.10
2020,12,04,16,14,9.10
2020,12,04,16,15,9.00
2020,12,04,16,16,9.00
2020,12,04,16,17,9.00
2020,12,04,16,18,9.00
2020,12,04,16,19,8.90
2020,12,04,16,20,8.90
2020,12,04,16,21,8.90
2020,12,04,16,22,8.90
2020,12,04,16,23,8.90
2020,12,04,16,24,8.90
2020,12,04,16,25,8.80
2020,12,04,16,26,8.80
2020,12,04,16,27,8.80
2020,12,04,16,28,8.80
2020,12,04,16,29,8.70
2020,12,04,16,30,8.70
2020,12,04,16,31,8.70
2020,12,04,16,32,8.70
2020,12,04,16,33,8.70
2020,12,04,16,34,8.70
2020,12,04,16,35,8.70
2020,12,04,16,36,8.60
2020,12,04,16,37,8.60
2020,12,04,16,38,8.60
2020,12,04,16,39,8.50
2020,12,04,16,40,8.50
2020,12,04,16,41,8.50
2020,12,04,16,42,8.40
2020,12,04,16,43,8.40
2020,12,04,16,44,8.40
2020,12,04,16,45,8.30
2020,12,04,16,46,8.30
2020,12,04,16,47,8.30
2020,12,04,16,48,8.20
2020,12,04,16,49,8.20
2020,12,04,16,50,8.20
2020,12,04,16,51,8.20
2020,12,04,16,52,8.10
2020,12,04,16,53,8.10
2020,12,04,16,54,8.00
2020,12,04,16,55,8.00
2020,12,04,16,56,8.00
2020,12,04,16,57,7.90
2020,12,04,16,58,7.90
2020,12,04,16,59,7.90
2020,12,04,17,00,7.80
2020,12,04,17,01,7.80
2020,12,04,17,02,7.80
2020,12,04,17,03,7.80
2020,12,04,17,04,7.80
2020,12,04,17,05,7.80
2020,12,04,17,06,7.80
2020,12,04,17,07,7.70
2020,12,04,17,08,7.70
2020,12,04,17,09,7.70
2020,12,04,17,10,7.70
2020,12,04,17,11,7.60
2020,12,04,17,12,7.60
2020,12,04,17,13,7.60
2020,12,04,17,14,7.50
2020,12,04,17,15,7.40
2020,12,04,17,16,7.40
2020,12,04,17,17,7.30
2020,12,04,17,18,7.30
2020,12,04,17,19,7.30
2020,12,04,17,20,7.30
2020,12,04,17,21,7.30
2020,12,04,17,22,7.30
2020,12,04,17,23,7.20
2020,12,04,17,24,7.20
2020,12,04,17,25,7.10
2020,12,04,17,26,7.10
2020,12,04,17,27,7.00
2020,12,04,17,28,7.00
2020,12,04,17,29,7.00
2020,12,04,17,30,7.00
2020,12,04,17,31,6.90
2020,12,04,17,32,6.90
2020,12,04,17,33,6.90
2020,12,04,17,34,6.90
2020,12,04,17,35,6.90
2020,12,04,17,36,6.90
2020,12,04,17,37,6.90
2020,12,04,17,38,6.90
2020,12,04,17,39,6.80
2020,12,04,17,40,6.80
2020,12,04,17,41,6.80
2020,12,04,17,42,6.80
2020,12,04,17,43,6.80
2020,12,04,17,44,6.70
2020,12,04,17,45,6.70
2020,12,04,17,46,6.60
2020,12,04,17,47,6.60
2020,12,04,17,48,6.60
2020,12,04,17,49,6.60
2020,12,04,17,50,6.60
2020,12,04,17,51,6.50
2020,12,04,17,52,6.40
2020,12,04,17,53,6.40
2020,12,04,17,54,6.40